GW2606 Weather Reports


time (UTC)temp
C
wind
direction
speed
KPH
gust
KPH
rain 1hr
cm
rain 24hr
cm
rain mn
cm
humidity
%
barometer
mb
20260507145036 17 360 8.0 19.3 0.03 0.05 0.05 89 1016.3
20260507144548 17 28 8.0 19.3 0.00 0.03 0.03 89 1016.3
20260507144036 18 5 9.7 17.7 0.00 0.03 0.03 88 1016.2
20260507143535 18 33 8.0 19.3 0.00 0.03 0.03 88 1016.2
20260507143049 18 44 9.7 19.3 0.00 0.03 0.03 87 1015.9
20260507142535 18 46 6.4 14.5 0.00 0.03 0.03 88 1015.8
20260507142034 18 32 6.4 16.1 0.03 0.03 0.03 87 1015.8
20260507141612 18 87 6.4 17.7 0.03 0.03 0.03 87 1015.6
20260507141039 19 84 8.0 17.7 0.03 0.03 0.03 87 1015.2
20260507140535 19 50 8.0 17.7 0.03 0.03 0.03 87 1015.4
20260507140048 19 40 4.8 12.9 0.03 0.03 0.03 86 1015.7
20260507135535 19 44 4.8 12.9 0.03 0.03 0.03 86 1015.7
20260507135035 20 16 3.2 11.3 0.03 0.03 0.03 85 1015.6
20260507134559 20 33 1.6 8.0 0.03 0.03 0.03 85 1015.6
20260507134037 20 40 3.2 8.0 0.03 0.03 0.03 85 1015.6
20260507133535 20 40 4.8 8.0 0.03 0.03 0.03 84 1015.4
20260507133056 20 0 0.0 6.4 0.03 0.03 0.03 84 1015.4
20260507132535 20 333 3.2 6.4 0.03 0.03 0.03 84 1015.0
20260507132035 20 0 0.0 8.0 0.00 0.00 0.00 84 1015.3
20260507131550 20 134 1.6 8.0 0.00 0.00 0.00 84 1015.3
20260507131036 20 164 3.2 8.0 0.00 0.00 0.00 84 1015.4
20260507130536 20 50 0.0 8.0 0.00 0.00 0.00 83 1015.4
20260507130052 20 46 3.2 6.4 0.00 0.00 0.00 83 1015.0
20260507125536 20 0 1.6 4.8 0.00 0.00 0.00 83 1015.3
20260507125037 20 140 0.0 4.8 0.00 0.00 0.00 83 1015.2
20260507124549 20 0 0.0 4.8 0.00 0.00 0.00 83 1015.0
20260507124035 20 140 3.2 4.8 0.00 0.00 0.00 83 1014.9
20260507123535 20 0 0.0 4.8 0.00 0.00 0.00 83 1014.8
20260507123054 20 140 1.6 6.4 0.00 0.00 0.00 83 1014.6
20260507122535 20 140 3.2 6.4 0.00 0.00 0.00 82 1014.6
20260507122035 20 140 1.6 4.8 0.00 0.00 0.00 82 1014.5
20260507121552 20 0 0.0 0.0 0.00 0.00 0.00 82 1014.4
20260507121035 20 0 0.0 1.6 0.00 0.00 0.00 82 1014.5
20260507120537 20 0 0.0 4.8 0.00 0.00 0.00 81 1014.5
20260507115535 20 360 1.6 9.7 0.00 0.00 0.00 80 1014.3
20260507115037 20 0 3.2 9.7 0.00 0.00 0.00 80 1014.2
20260507114558 20 28 4.8 8.0 0.00 0.00 0.00 79 1014.0
20260507114034 20 58 1.6 6.4 0.00 0.00 0.00 79 1014.2
20260507113538 20 58 3.2 6.4 0.00 0.00 0.00 79 1014.2
20260507113051 20 0 1.6 4.8 0.00 0.00 0.00 79 1014.2
20260507112534 20 58 1.6 8.0 0.00 0.00 0.00 79 1014.2
20260507112036 20 58 3.2 12.9 0.00 0.00 0.00 79 1014.1
20260507111548 20 60 3.2 12.9 0.00 0.00 0.00 79 1013.8
20260507111039 20 101 6.4 12.9 0.00 0.00 0.00 79 1013.5
20260507110537 20 76 4.8 11.3 0.00 0.00 0.00 79 1013.6
20260507110047 20 60 4.8 12.9 0.00 0.00 0.00 79 1013.5
20260507105535 20 86 6.4 12.9 0.00 0.00 0.00 79 1013.5
20260507105035 20 99 4.8 9.7 0.00 0.00 0.00 79 1013.8
20260507104548 20 46 3.2 12.9 0.00 0.00 0.00 78 1013.8
20260507104035 20 86 6.4 12.9 0.00 0.00 0.00 78 1013.8
20260507103535 20 96 4.8 14.5 0.00 0.00 0.00 78 1013.4
20260507103049 20 107 6.4 14.5 0.00 0.00 0.00 78 1013.5
20260507102536 20 88 6.4 14.5 0.00 0.00 0.00 78 1013.4
20260507102036 20 80 6.4 14.5 0.00 0.00 0.00 78 1013.2
20260507101542 20 70 8.0 11.3 0.00 0.00 0.00 78 1013.1
20260507101037 20 134 4.8 11.3 0.00 0.00 0.00 78 1013.0
20260507100540 20 81 6.4 11.3 0.00 0.00 0.00 78 1013.1
20260507100043 20 79 6.4 11.3 0.00 0.00 0.00 78 1013.1
20260507095536 20 58 4.8 11.3 0.00 0.00 0.00 78 1013.4
20260507095034 20 74 4.8 11.3 0.00 0.00 0.00 78 1013.3
20260507094553 20 105 1.6 11.3 0.00 0.00 0.00 78 1013.6
20260507094035 20 105 1.6 12.9 0.00 0.00 0.00 78 1013.3
20260507093535 20 98 6.4 12.9 0.00 0.00 0.00 78 1013.3
20260507093046 20 105 1.6 8.0 0.00 0.00 0.00 78 1013.3
20260507092535 20 87 3.2 12.9 0.00 0.00 0.00 79 1013.3
20260507092035 20 65 4.8 12.9 0.00 0.00 0.00 78 1013.1
20260507091546 20 82 4.8 9.7 0.00 0.00 0.00 79 1013.2
20260507091035 20 105 3.2 9.7 0.00 0.00 0.00 79 1013.2
20260507090534 20 113 3.2 9.7 0.00 0.00 0.00 79 1013.3
20260507090045 20 39 3.2 6.4 0.00 0.00 0.00 78 1013.1
20260507085536 20 39 1.6 4.8 0.00 0.00 0.00 78 1013.1
20260507085035 20 39 1.6 6.4 0.00 0.00 0.00 78 1013.2
20260507084542 20 39 3.2 9.7 0.00 0.00 0.00 78 1013.2
20260507084035 20 39 3.2 9.7 0.00 0.00 0.00 78 1013.5
20260507083535 20 80 4.8 9.7 0.00 0.00 0.00 78 1013.6
20260507083045 20 71 4.8 11.3 0.00 0.00 0.00 78 1013.4
20260507082536 20 101 3.2 11.3 0.00 0.00 0.00 78 1013.3
20260507082035 20 105 3.2 12.9 0.00 0.00 0.00 77 1013.3
20260507081548 20 86 4.8 16.1 0.00 0.00 0.00 77 1013.3
20260507081035 20 61 6.4 16.1 0.00 0.00 0.00 77 1013.1
20260507080539 20 74 6.4 12.9 0.00 0.00 0.00 76 1013.5
20260507080056 20 66 6.4 12.9 0.00 0.00 0.00 76 1013.5
20260507075535 20 79 4.8 11.3 0.00 0.00 0.00 76 1013.6
20260507075035 20 92 4.8 12.9 0.00 0.00 0.00 76 1013.8
20260507074548 21 94 6.4 12.9 0.00 0.00 0.00 76 1013.7
20260507074037 21 82 6.4 11.3 0.00 0.00 0.00 76 1013.8
20260507073535 21 103 3.2 9.7 0.00 0.00 0.00 76 1013.8
20260507073107 21 93 4.8 11.3 0.00 0.00 0.00 75 1013.9
20260507072535 21 111 3.2 14.5 0.00 0.00 0.00 75 1013.9
20260507072035 21 88 6.4 14.5 0.00 0.00 0.00 75 1013.8
20260507071546 21 100 4.8 12.9 0.00 0.00 0.00 75 1013.7
20260507071035 21 106 4.8 12.9 0.00 0.00 0.00 75 1013.8
20260507070535 21 126 4.8 12.9 0.00 0.00 0.00 75 1013.9
20260507070051 21 98 4.8 9.7 0.00 0.00 0.00 75 1013.9
20260507065536 21 99 4.8 14.5 0.00 0.00 0.00 74 1013.9
20260507065035 21 84 6.4 16.1 0.00 0.00 0.00 74 1013.8
20260507064609 21 49 6.4 16.1 0.00 0.00 0.00 73 1013.8
20260507064036 21 81 4.8 16.1 0.00 0.00 0.00 73 1013.8
20260507063536 21 99 6.4 16.1 0.00 0.00 0.00 73 1013.8
20260507063056 21 86 8.0 14.5 0.00 0.00 0.00 73 1013.8
20260507062535 21 87 8.0 17.7 0.00 0.00 0.00 73 1013.7
20260507062035 21 84 8.0 17.7 0.00 0.00 0.00 73 1013.6
20260507061549 21 59 9.7 17.7 0.00 0.00 0.00 73 1013.7
20260507061036 22 80 6.4 14.5 0.00 0.00 0.00 73 1013.5
20260507060535 22 98 6.4 14.5 0.00 0.00 0.00 73 1013.5
20260507060052 22 89 6.4 14.5 0.00 0.00 0.00 73 1013.6
20260507055535 22 96 4.8 11.3 0.00 0.00 0.00 74 1013.4
20260507055035 22 118 6.4 11.3 0.00 0.00 0.00 74 1013.5
20260507054550 22 128 3.2 11.3 0.00 0.00 0.00 74 1013.4
20260507054035 22 132 4.8 14.5 0.00 0.00 0.00 74 1013.5
20260507053538 22 94 6.4 14.5 0.00 0.00 0.00 73 1013.2
20260507053049 22 131 6.4 12.9 0.00 0.00 0.00 73 1013.1
20260507052534 22 149 6.4 11.3 0.00 0.00 0.00 73 1013.1
20260507052035 22 111 6.4 11.3 0.00 0.00 0.00 73 1013.2
20260507051552 22 112 6.4 14.5 0.00 0.00 0.00 72 1013.2
20260507051039 22 82 6.4 16.1 0.00 0.00 0.00 72 1013.1
20260507050536 22 102 8.0 16.1 0.00 0.00 0.00 72 1013.1
20260507050053 22 81 6.4 12.9 0.00 0.00 0.00 72 1013.1
20260507045535 22 84 4.8 12.9 0.00 0.00 0.00 72 1013.1
20260507045035 22 73 3.2 6.4 0.00 0.00 0.00 72 1013.2
20260507044553 23 73 1.6 6.4 0.00 0.00 0.00 71 1013.0
20260507044038 23 360 0.0 3.2 0.00 0.00 0.00 71 1013.1
20260507043535 23 360 1.6 3.2 0.00 0.00 0.00 70 1012.9
20260507043051 23 0 0.0 3.2 0.00 0.00 0.00 70 1013.2
20260507042535 23 0 0.0 4.8 0.00 0.00 0.00 69 1013.0
20260507042036 23 0 1.6 6.4 0.00 0.00 0.00 69 1012.7
20260507041548 23 360 3.2 6.4 0.00 0.00 0.00 69 1012.3
20260507041037 23 56 3.2 6.4 0.00 0.00 0.00 69 1012.2
20260507040534 23 56 3.2 6.4 0.00 0.00 0.00 68 1012.1
20260507040104 23 56 1.6 11.3 0.00 0.00 0.00 68 1012.2
20260507035534 23 56 1.6 11.3 0.00 0.00 0.00 67 1011.9
20260507035034 23 40 4.8 17.7 0.00 0.00 0.00 67 1011.4
20260507034605 23 39 6.4 17.7 0.00 0.00 0.00 66 1011.3
20260507034034 24 63 6.4 17.7 0.00 0.00 0.00 66 1011.1
20260507033536 24 30 9.7 19.3 0.00 0.00 0.00 65 1011.0
20260507033104 24 44 8.0 19.3 0.00 0.00 0.00 65 1011.1
20260507032537 24 51 8.0 19.3 0.00 0.00 0.00 64 1011.0
20260507032035 24 71 11.3 22.5 0.00 0.00 0.00 63 1010.7
20260507031548 24 32 14.5 22.5 0.00 0.00 0.00 63 1010.7
20260507031035 25 39 12.9 20.9 0.00 0.00 0.00 62 1010.7
20260507030538 25 59 8.0 17.7 0.00 0.00 0.00 61 1011.0
20260507030046 25 57 8.0 17.7 0.00 0.00 0.00 61 1010.9
20260507025535 25 30 6.4 14.5 0.00 0.00 0.00 60 1010.9
20260507025035 25 53 4.8 9.7 0.00 0.00 0.00 59 1011.0
20260507024554 25 52 3.2 9.7 0.00 0.00 0.00 59 1011.0
20260507024034 25 45 6.4 14.5 0.00 0.00 0.00 58 1010.9
20260507023538 25 29 4.8 16.1 0.00 0.00 0.00 57 1011.0
20260507023049 25 47 4.8 16.1 0.00 0.00 0.00 56 1010.9
20260507022535 25 28 8.0 16.1 0.00 0.00 0.00 56 1010.8
20260507022035 26 49 4.8 11.3 0.00 0.00 0.00 55 1010.8
20260507021557 26 38 4.8 11.3 0.00 0.00 0.00 54 1010.8
20260507021039 26 49 4.8 8.0 0.00 0.00 0.00 54 1010.7
20260507020534 26 65 3.2 8.0 0.00 0.00 0.00 53 1010.7
20260507020051 26 53 3.2 8.0 0.00 0.00 0.00 52 1010.6
20260507015534 26 51 4.8 8.0 0.00 0.00 0.00 52 1010.5
20260507015039 26 55 3.2 8.0 0.00 0.00 0.00 51 1010.4
20260507014552 27 55 4.8 8.0 0.00 0.00 0.00 50 1010.3
20260507014036 27 31 3.2 11.3 0.00 0.00 0.00 50 1010.4
20260507013535 27 53 4.8 11.3 0.00 0.00 0.00 49 1010.3
20260507013045 27 78 4.8 11.3 0.00 0.00 0.00 49 1010.2
20260507012535 27 63 4.8 11.3 0.00 0.00 0.00 49 1010.2
20260507012035 27 51 3.2 8.0 0.00 0.00 0.00 49 1010.0
20260507011545 27 74 3.2 11.3 0.00 0.00 0.00 48 1010.0
20260507011033 28 72 3.2 11.3 0.00 0.00 0.00 47 1009.9
20260507010535 28 55 6.4 16.1 0.00 0.00 0.00 47 1009.8
20260507010052 28 79 4.8 16.1 0.00 0.00 0.00 47 1009.8
20260507005534 28 56 6.4 16.1 0.00 0.00 0.00 46 1009.7
20260507005034 28 55 6.4 19.3 0.00 0.00 0.00 45 1009.6
20260507004553 28 55 9.7 22.5 0.00 0.00 0.00 45 1009.6
20260507004035 28 70 12.9 22.5 0.00 0.00 0.00 45 1009.5
20260507003535 29 96 9.7 19.3 0.00 0.00 0.00 45 1009.4
20260507003051 29 79 12.9 19.3 0.00 0.00 0.00 44 1009.4
20260507002535 29 61 11.3 19.3 0.00 0.00 0.00 44 1009.4
20260507002035 29 92 9.7 19.3 0.00 0.00 0.00 42 1009.3
20260507001605 29 78 9.7 22.5 0.00 0.00 0.00 41 1009.3
20260507001038 29 86 12.9 22.5 0.00 0.00 0.00 41 1009.1
20260507000535 29 50 11.3 24.1 0.00 0.00 0.00 42 1009.1
20260507000056 29 64 11.3 24.1 0.00 0.00 0.00 42 1009.0
20260506235535 29 58 11.3 24.1 0.00 0.00 0.00 41 1009.0
20260506235038 29 57 12.9 22.5 0.00 0.00 0.00 42 1009.0
20260506234556 29 81 12.9 22.5 0.00 0.00 0.00 43 1008.9
20260506234035 29 79 9.7 22.5 0.00 0.00 0.00 44 1009.0
20260506233533 30 49 12.9 22.5 0.00 0.00 0.00 44 1008.9
20260506233044 30 59 12.9 20.9 0.00 0.00 0.00 45 1008.8
20260506232535 30 62 11.3 20.9 0.00 0.00 0.00 45 1008.7
20260506232034 30 72 11.3 22.5 0.00 0.00 0.00 44 1008.7
20260506231555 30 69 16.1 24.1 0.00 0.00 0.00 42 1008.8
20260506231034 30 63 12.9 27.4 0.00 0.00 0.00 45 1008.8
20260506230534 30 44 12.9 27.4 0.00 0.00 0.00 45 1008.7
20260506230048 30 77 16.1 27.4 0.00 0.00 0.00 44 1008.6
20260506225535 30 73 12.9 29.0 0.00 0.00 0.00 45 1008.5
20260506225036 30 78 12.9 29.0 0.00 0.00 0.00 43 1008.3
20260506224603 30 56 14.5 22.5 0.00 0.00 0.00 44 1008.2
20260506224035 30 57 11.3 25.7 0.00 0.00 0.00 43 1008.5
20260506223534 30 81 14.5 27.4 0.00 0.00 0.00 44 1008.6
20260506223057 30 24 17.7 27.4 0.00 0.00 0.00 44 1008.5
20260506222536 30 32 16.1 25.7 0.00 0.00 0.00 45 1008.6
20260506222036 30 34 16.1 24.1 0.00 0.00 0.00 45 1008.6
20260506221552 30 62 14.5 29.0 0.00 0.00 0.00 42 1008.7
20260506221035 30 81 14.5 29.0 0.00 0.00 0.00 44 1008.7
20260506220535 30 65 14.5 25.7 0.00 0.00 0.00 43 1008.6
20260506220059 30 24 14.5 30.6 0.00 0.00 0.00 43 1008.6
20260506215535 30 60 12.9 30.6 0.00 0.00 0.00 43 1008.5
20260506215035 30 5 16.1 27.4 0.00 0.00 0.00 44 1008.2
20260506214549 30 80 12.9 27.4 0.00 0.00 0.00 49 1008.3
20260506214036 30 60 16.1 27.4 0.00 0.00 0.00 46 1008.5
20260506213535 30 40 16.1 27.4 0.00 0.00 0.00 45 1008.7
20260506213045 30 63 9.7 24.1 0.00 0.00 0.00 51 1009.0
20260506212536 30 76 14.5 29.0 0.00 0.00 0.00 53 1008.7
20260506212035 30 19 16.1 29.0 0.00 0.00 0.00 48 1008.7
20260506211554 30 50 11.3 27.4 0.00 0.00 0.00 52 1009.1
20260506211037 30 56 12.9 29.0 0.00 0.00 0.00 51 1009.0
20260506210535 30 30 16.1 29.0 0.00 0.00 0.00 48 1008.9
20260506210046 30 67 9.7 20.9 0.00 0.00 0.00 48 1009.1
20260506205538 30 28 11.3 22.5 0.00 0.00 0.00 47 1009.1
20260506205037 30 360 8.0 22.5 0.00 0.00 0.00 48 1009.1
20260506204542 30 31 9.7 25.7 0.00 0.00 0.00 45 1009.2
20260506204036 31 13 12.9 25.7 0.00 0.00 0.00 46 1009.1
20260506203535 31 27 8.0 19.3 0.00 0.00 0.00 48 1009.3
20260506203041 30 30 9.7 22.5 0.00 0.00 0.00 47 1009.2
20260506202537 30 22 11.3 22.5 0.00 0.00 0.00 47 1009.3
20260506202033 30 352 12.9 22.5 0.00 0.00 0.00 48 1009.3
20260506201546 29 57 8.0 19.3 0.00 0.00 0.00 51 1009.3
20260506201034 29 36 6.4 17.7 0.00 0.00 0.00 53 1009.5
20260506200534 28 15 11.3 17.7 0.00 0.00 0.00 53 1009.3
20260506200045 28 38 11.3 17.7 0.00 0.00 0.00 53 1009.3
20260506195536 29 5 9.7 17.7 0.00 0.00 0.00 58 1009.3
20260506195035 29 360 6.4 17.7 0.00 0.00 0.00 60 1009.6
20260506194546 28 346 9.7 17.7 0.00 0.00 0.00 61 1009.6
20260506194033 28 348 8.0 17.7 0.00 0.00 0.00 62 1009.7
20260506193534 29 54 6.4 17.7 0.00 0.00 0.00 63 1009.6
20260506193052 28 351 9.7 17.7 0.00 0.00 0.00 64 1009.7
20260506192534 28 32 9.7 17.7 0.00 0.00 0.00 64 1009.8
20260506192037 28 19 9.7 17.7 0.00 0.00 0.00 65 1009.8
20260506191547 28 14 8.0 19.3 0.00 0.00 0.00 66 1009.8
20260506191033 28 28 11.3 19.3 0.00 0.00 0.00 67 1009.9
20260506190534 28 15 6.4 17.7 0.00 0.00 0.00 67 1010.0
20260506190049 28 360 8.0 17.7 0.00 0.00 0.00 67 1010.0
20260506185535 28 50 8.0 16.1 0.00 0.00 0.00 68 1010.1
20260506185035 28 5 6.4 17.7 0.00 0.00 0.00 68 1010.2
20260506184546 28 38 8.0 17.7 0.00 0.00 0.00 68 1010.3
20260506184035 28 9 8.0 17.7 0.00 0.00 0.00 69 1010.3
20260506183538 28 42 8.0 16.1 0.00 0.00 0.00 68 1010.2
20260506183045 28 55 3.2 16.1 0.00 0.00 0.00 68 1010.3
20260506182537 28 360 8.0 17.7 0.00 0.00 0.00 67 1010.4
20260506182037 28 61 8.0 17.7 0.00 0.00 0.00 68 1010.3
20260506181608 28 351 6.4 17.7 0.00 0.00 0.00 67 1010.6
20260506181038 28 326 9.7 19.3 0.00 0.00 0.00 67 1010.7
20260506180537 28 352 11.3 20.9 0.00 0.00 0.00 67 1010.6
20260506180054 28 35 8.0 20.9 0.00 0.00 0.00 68 1010.7
20260506175536 28 46 11.3 20.9 0.00 0.00 0.00 68 1010.8
20260506175036 28 341 12.9 27.4 0.00 0.00 0.00 66 1010.9
20260506174553 28 46 12.9 27.4 0.00 0.00 0.00 68 1010.8
20260506174039 28 31 14.5 22.5 0.00 0.00 0.00 67 1010.9
20260506173536 27 17 14.5 22.5 0.00 0.00 0.00 69 1011.0
20260506173121 27 72 12.9 24.1 0.00 0.00 0.00 70 1010.9
20260506172536 27 57 12.9 24.1 0.00 0.00 0.00 70 1011.1
20260506172036 27 13 9.7 24.1 0.00 0.00 0.00 74 1011.1
20260506171555 26 35 9.7 27.4 0.00 0.00 0.00 75 1011.0
20260506171036 25 48 17.7 27.4 0.00 0.00 0.00 76 1011.0
20260506170536 25 47 14.5 29.0 0.00 0.00 0.00 79 1011.0
20260506170059 25 51 19.3 29.0 0.00 0.00 0.00 80 1010.9
20260506165537 25 12 14.5 24.1 0.00 0.00 0.00 83 1010.8
20260506165037 24 46 14.5 27.4 0.00 0.00 0.00 84 1010.7
20260506164550 24 34 16.1 27.4 0.00 0.00 0.00 84 1010.8
20260506164036 24 17 12.9 30.6 0.00 0.00 0.00 83 1010.9
20260506163539 25 352 14.5 30.6 0.00 0.00 0.00 82 1010.8
20260506163048 25 352 20.9 30.6 0.00 0.00 0.00 80 1010.7
20260506162537 26 309 3.2 12.9 0.00 0.00 0.00 82 1010.6
20260506162036 26 57 4.8 11.3 0.00 0.00 0.00 82 1010.4
20260506161550 26 25 1.6 9.7 0.00 0.00 0.00 83 1010.3
20260506161037 26 5 3.2 14.5 0.00 0.00 0.00 84 1010.3
20260506160536 26 67 4.8 14.5 0.00 0.00 0.00 84 1010.2
20260506155534 26 98 6.4 11.3 0.00 0.00 0.00 86 1010.0
20260506155037 25 74 6.4 14.5 0.00 0.00 0.00 86 1010.0
20260506154551 25 65 6.4 14.5 0.00 0.00 0.00 86 1010.0
20260506154036 25 64 6.4 14.5 0.00 0.00 0.00 86 1010.0
20260506153535 25 84 6.4 12.9 0.00 0.00 0.00 86 1009.9
20260506153050 25 29 3.2 9.7 0.00 0.00 0.00 87 1009.8
20260506152536 25 88 4.8 8.0 0.00 0.00 0.00 86 1009.7
20260506152036 25 92 1.6 6.4 0.00 0.00 0.00 86 1009.7
20260506151547 25 160 0.0 3.2 0.00 0.00 0.00 86 1009.7
20260506151037 25 160 0.0 3.2 0.00 0.00 0.00 87 1009.7
20260506150537 25 0 0.0 8.0 0.00 0.00 0.00 86 1009.6
20260506150051 25 0 1.6 8.0 0.00 0.00 0.00 86 1009.6
20260506145538 25 160 4.8 8.0 0.00 0.00 0.00 86 1009.5